ONEWEB-0320 (49190 NORAD) Tracking and Keplerian Element Data

This shows tracking and keplerian element data for the satellite.

Feedback or suggestion? Click here.




ElementValue
Catalog49190
NameONEWEB-0320
Epoch Orbit362
Epoch Day287.91667824
Epoch Year2021
RAAN317.9642
Inclination87.5017
Eccentricity0.0017751
Argument of Perigee190.0602
Mean Anonmoly170.6392
Mean Motion14.89949358
Decay Rate-0.01352554
L11 49190U 21083E 21287.91667824 -.01352554 00000-0 -15262+0 0 9992
L22 49190 87.5017 317.9642 0017751 190.0602 170.6392 14.89949358 3623

Live tracking and technical data element details for ONEWEB-0320 (NORAD 49190). ONEWEB-0320 can be tracked NOW for your location showing map with azimuth and elevation plus other details from your city location.

Track the satellite on the map from your city or location and see movement details for azimuth, elevation, latitude, longitude, range, height, and movement on the map or in text.







IsCatalogInMostPopularTable: catalog: 49190, numindb: 8
Update: records affected: 1



GetName: 49190 ONEWEB-0320

Hit Count: updated at: Tue, 19 Oct 2021 08:44:22 GMT